Home   Weather   Emmen   Past weeks

Flag for Switzerland Past Weather in Emmen, Lucerne, Switzerland — Yesterday and Last 2 Weeks

Now
42 °F

Quite cool.


Feels Like: 40 °F
Forecast: 35 / 42 °F
Wind: 3 mph from Northeast

Location: Giswil

Current Time: Apr 27, 2017 at 3:06:09 pm

Latest Report: Apr 27, 2017 at 2:00 pm


Visibility: N/A

Pressure: 29.98 "Hg

Humidity: 90%

Dew Point: 39 °F

Location of EmmenLocation

Past Weather in Emmen — Graph

°F

Emmen Temperature Yesterday

Maximum temperature yesterday: 46 °F (at 12:00 am)
Minimum temperature yesterday: 40 °F (at 10:00 pm)
Average temperature yesterday: 42 °F

High & Low Weather Summary for the Past Weeks

 TemperatureHumidityPressure
High68 °F (Apr 12, 5:00 pm)100% (Apr 13, 8:00 am)30.59 "Hg (Apr 13, 8:00 am)
Low23 °F (Apr 21, 6:00 am)25% (Apr 21, 5:00 pm)29.73 "Hg (Apr 25, 11:00 pm)
Average46 °F79%30.14 "Hg
* Reported Apr 12 1:00 pm — Apr 27 1:00 pm, Emmen, Weather by CustomWeather, © 2017

Note: Actual official high and low records may vary slightly from our data, if they occured in-between our weather recording intervals... More about our weather records

Advertising

Emmen Weather History for the Previous 24 Hours

Scroll right to see more
 ConditionsComfort  
Time TempWeatherWind HumidityBarometerVisibility
1:00 pm
Thu, Apr 27
42 °FQuite cool.5 mph88%29.98 "HgN/A
12:00 pm40 °FQuite cool.3 mph89%30.00 "HgN/A
11:00 am40 °FQuite cool.2 mph92%29.99 "HgN/A
10:00 am39 °FChilly.3 mph91%29.99 "HgN/A
9:00 am39 °FChilly.1 mph99%29.98 "HgN/A
8:00 am38 °FChilly.2 mph99%29.98 "HgN/A
7:00 am39 °FChilly.1 mph99%29.97 "HgN/A
6:00 am39 °FChilly.No wind100%29.96 "HgN/A
5:00 am39 °FChilly.No wind98%29.95 "HgN/A
4:00 am39 °FChilly.No wind100%29.96 "HgN/A
3:00 am39 °FChilly.No wind97%29.95 "HgN/A
2:00 am39 °FChilly.No wind99%29.95 "HgN/A
1:00 am39 °FChilly.1 mph99%29.94 "HgN/A
12:00 am40 °FChilly.1 mph99%29.93 "HgN/A
11:00 pm
Wed, Apr 26
40 °FChilly.1 mph100%29.92 "HgN/A
10:00 pm40 °FChilly.1 mph100%29.93 "HgN/A
9:00 pm40 °FQuite cool.2 mph96%29.91 "HgN/A
8:00 pm41 °FQuite cool.1 mph98%29.90 "HgN/A
7:00 pm41 °FQuite cool.2 mph96%29.89 "HgN/A
6:00 pm42 °FQuite cool.3 mph93%29.88 "HgN/A
5:00 pm41 °FQuite cool.2 mph97%29.88 "HgN/A
4:00 pm41 °FQuite cool.3 mph97%29.88 "HgN/A
3:00 pm41 °FQuite cool.5 mph95%29.87 "HgN/A
Weather by CustomWeather, © 2017

See weather overviewHow to use our weather pages